This demonstration page uses our WeatherBlox Daily Observations layout. Learn more.

40.92945, -100.16068

Hourly Observations for April 17, 2018

Temp ( °F °C ) Dew Point ( °F °C ) Humidity (%) Winds ( mph kmh ) Pressure ( in mb ) Visibility ( mi km ) Precip ( " mm )
12:15 am 00:15 Clear 38 3.1 29 -1.8 71 71 E 10 17 29.97 1015 10 16.0934 0 0
12:35 am 00:35 Clear 37 2.6 29 -1.4 75 75 ESE 10 17 30 1016 10 16.0934 0 0
12:55 am 00:55 Clear 37 2.5 30 -1.1 77 77 ESE 10 17 29.97 1015 10 16.0934 0 0
1:15 am 01:15 Clear 36 2.3 30 -1 79 79 ESE 10 17 29.97 1015 10 16.0934 0 0
1:35 am 01:35 Clear 37 2.9 31 -0.8 77 77 ESE 13 20 29.94 1014 10 16.0934 0 0
1:55 am 01:55 Clear 37 2.9 30 -1 76 76 ESE 14 22 29.94 1014 10 16.0934 0 0
2:15 am 02:15 Clear 37 2.6 30 -1.1 77 77 ESE 12 19 29.94 1014 10 16.0934 0 0
2:35 am 02:35 Clear 37 2.7 30 -1.3 75 75 ESE 13 20 29.94 1014 10 16.0934 0 0
2:55 am 02:55 Clear 37 2.5 30 -1.3 76 76 ESE 14 22 29.91 1013 10 16.0934 0 0
3:15 am 03:15 Clear 36 2.2 29 -1.5 77 77 ESE 16 26 29.94 1014 10 16.0934 0 0
3:35 am 03:35 Clear 36 2.2 29 -1.5 77 77 ESE 13 20 29.94 1014 10 16.0934 0 0
3:55 am 03:55 Clear 36 2 29 -1.7 77 77 E 13 20 29.94 1014 10 16.0934 0 0
4:15 am 04:15 Clear 35 1.7 29 -1.9 77 77 E 7 11 29.94 1014 10 16.0934 0 0
4:35 am 04:35 Clear 35 1.4 29 -1.7 80 80 E 10 17 29.91 1013 10 16.0934 0 0
4:55 am 04:55 Clear 35 1.5 29 -1.9 78 78 ESE 12 19 29.91 1013 10 16.0934 0 0
5:15 am 05:15 Clear 35 1.5 29 -1.9 78 78 E 13 20 29.91 1013 10 16.0934 0 0
5:35 am 05:35 Clear 33 0.6 28 -2.1 82 82 E 10 17 29.91 1013 10 16.0934 0 0
5:55 am 05:55 Clear 33 0.3 28 -2 85 85 E 13 20 29.91 1013 10 16.0934 0 0
6:15 am 06:15 Clear 33 0.5 28 -2 84 84 E 16 26 29.88 1012 10 16.0934 0 0
6:35 am 06:35 Clear 33 0.6 28 -2 83 83 E 13 20 29.91 1013 10 16.0934 0 0
6:55 am 06:55 Clear 33 0.7 28 -2 82 82 E 12 19 29.88 1012 10 16.0934 0 0
7:15 am 07:15 Sunny 33 0.8 28 -2 82 82 E 14 22 29.91 1013 10 16.0934 0 0
7:35 am 07:35 Sunny 33 0.8 28 -2 82 82 ESE 13 20 29.91 1013 10 16.0934 0 0
7:55 am 07:55 Sunny 34 0.9 29 -1.8 82 82 ESE 14 22 29.91 1013 10 16.0934 0 0
8:15 am 08:15 Sunny 34 1 29 -1.8 82 82 E 13 20 29.91 1013 10 16.0934 0 0
8:35 am 08:35 Sunny 34 1 29 -1.7 82 82 ESE 15 24 29.91 1013 10 16.0934 0 0
8:55 am 08:55 Sunny 35 1.5 29 -1.6 80 80 ESE 15 24 29.88 1012 10 16.0934 0 0
9:15 am 09:15 Sunny 37 2.6 30 -1.1 77 77 E 14 22 29.88 1012 10 16.0934 0 0
9:35 am 09:35 Sunny 38 3.3 30 -1.1 73 73 ESE 16 26 29.85 1011 10 16.0934 0 0
9:55 am 09:55 Sunny 39 4.1 30 -1 70 70 ESE 21 33 29.85 1011 10 16.0934 0 0
10:15 am 10:15 Sunny 40 4.6 30 -0.9 68 68 ESE 20 31 29.8 1009 10 16.0934 0 0
10:35 am 10:35 Sunny 42 5.5 31 -0.6 65 65 ESE 18 30 29.8 1009 10 16.0934 0 0
10:55 am 10:55 Sunny 43 6.3 31 -0.3 63 63 ESE 18 30 29.8 1009 10 16.0934 0 0
11:15 am 11:15 Sunny 45 7 31 -0.3 60 60 SE 17 28 29.8 1009 10 16.0934 0 0
11:35 am 11:35 Sunny 46 7.7 31 -0.3 57 57 SE 22 35 29.74 1007 10 16.0934 0 0
11:55 am 11:55 Sunny 47 8.3 32 0.1 57 57 ESE 20 31 29.74 1007 10 16.0934 0 0
12:15 pm 12:15 Sunny 48 8.7 32 0 55 55 ESE 18 30 29.74 1007 10 16.0934 0 0
12:35 pm 12:35 Sunny 49 9.4 32 0.2 53 53 ESE 21 33 29.71 1006 10 16.0934 0 0
12:55 pm 12:55 Sunny 51 10.3 33 0.5 51 51 ESE 22 35 29.68 1005 10 16.0934 0 0
1:15 pm 13:15 Sunny 52 11.1 33 0.7 49 49 ESE 23 37 29.68 1005 10 16.0934 0 0
1:35 pm 13:35 Sunny 53 11.5 33 0.7 48 48 ESE 22 35 29.65 1004 10 16.0934 0 0
1:55 pm 13:55 Sunny 54 12.4 34 1.3 47 47 SE 18 30 29.65 1004 10 16.0934 0 0
2:15 pm 14:15 Sunny 55 12.9 35 1.4 46 46 ESE 20 31 29.59 1002 10 16.0934 0 0
2:35 pm 14:35 Sunny 57 13.7 35 1.6 44 44 SE 20 31 29.59 1002 10 16.0934 0 0
2:55 pm 14:55 Sunny 58 14.2 35 1.8 43 43 ESE 17 28 29.56 1001 10 16.0934 0 0
3:15 pm 15:15 Sunny 58 14.2 35 1.7 43 43 ESE 21 33 29.56 1001 10 16.0934 0 0
3:35 pm 15:35 Sunny 58 14.4 35 1.6 42 42 ESE 22 35 29.56 1001 10 16.0934 0 0
3:55 pm 15:55 Sunny 60 15.3 35 1.6 40 40 SE 23 37 29.53 1000 10 16.0934 0 0
4:15 pm 16:15 Sunny 61 15.9 35 1.7 39 39 ESE 22 35 29.5 999 10 16.0934 0 0
4:35 pm 16:35 Sunny 61 16.2 35 1.7 38 38 ESE 23 37 29.5 999 10 16.0934 0 0
4:55 pm 16:55 Sunny 61 16.3 35 1.6 37 37 SE 21 33 29.5 999 10 16.0934 0 0
5:15 pm 17:15 Sunny 62 16.5 34 1.3 36 36 ESE 23 37 29.47 998 10 16.0934 0 0
5:35 pm 17:35 Sunny 62 16.5 35 1.4 36 36 ESE 22 35 29.44 997 10 16.0934 0 0
5:55 pm 17:55 Sunny 61 16.1 34 1.1 36 36 ESE 24 39 29.44 997 10 16.0934 0 0
6:15 pm 18:15 Sunny 61 16 34 1.3 37 37 ESE 23 37 29.44 997 10 16.0934 0 0
6:35 pm 18:35 Sunny 60 15.7 35 1.4 38 38 ESE 23 37 29.41 996 10 16.0934 0 0
6:55 pm 18:55 Sunny 60 15.3 35 1.6 40 40 ESE 18 30 29.41 996 10 16.0934 0 0
7:15 pm 19:15 Sunny 59 14.9 35 1.6 41 41 E 10 17 29.53 1000 10 16.0934 0 0
7:35 pm 19:35 Partly Cloudy 58 14.6 35 1.7 42 42 NNW 17 28 29.62 1003 10 16.0934 0 0
7:55 pm 19:55 Mostly Cloudy 57 13.7 35 1.7 44 44 N 18 30 29.62 1003 10 16.0934 0 0
8:15 pm 20:15 Mostly Cloudy 55 12.8 35 1.5 46 46 N 17 28 29.68 1005 10 16.0934 0 0
8:35 pm 20:35 Partly Cloudy 54 12.2 35 1.6 49 49 NNE 16 26 29.68 1005 10 16.0934 0 0
8:55 pm 20:55 Mostly Cloudy 53 11.5 35 1.8 52 52 NE 16 26 29.65 1004 10 16.0934 0 0
9:15 pm 21:15 Mostly Cloudy 53 11.5 35 1.7 51 51 ENE 15 24 29.65 1004 10 16.0934 0 0
9:35 pm 21:35 Cloudy 52 11.1 35 1.7 53 53 NNE 14 22 29.68 1005 10 16.0934 0 0
9:55 pm 21:55 Cloudy 51 10.7 35 1.6 54 54 N 14 22 29.68 1005 10 16.0934 0 0
10:15 pm 22:15 Cloudy with Light Rain 51 10.3 36 2 57 57 N 10 17 29.68 1005 10 16.0934 0 0
10:35 pm 22:35 Cloudy 50 10.1 36 2 57 57 N 9 15 29.74 1007 10 16.0934 0 0
10:55 pm 22:55 Cloudy with Nearby Thunderstorms 49 9.7 37 2.9 63 63 WNW 12 19 29.77 1008 10 16.0934 0 0
11:15 pm 23:15 Cloudy with Light Rain 48 8.7 40 4.3 74 74 WNW 16 26 29.77 1008 10 16.0934 0 0
11:35 pm 23:35 Cloudy with Light Rain 47 8.3 42 5.5 83 83 WNW 20 31 29.77 1008 7 11.26538 0.02 0.508
11:55 pm 23:55 Cloudy with Light Rain 45 7.1 40 4.5 84 84 NNW 15 24 29.83 1010 10 16.0934 0.04 1.016

Powered by AerisWeather